www.pogodaiklimat.ru

Погода и климат >> Архив погоды >> Канада >> Henderickson Auto


ПОГОДА в Henderickson Auto

  • Прогноз погоды в Henderickson Auto
  • Монитор погоды в Henderickson Auto
  • Климат города

АРХИВ ПОГОДЫ в Henderickson Auto

Время (UTC), дата Ветер
(напр.,м/с)
 
Видим.   Явления Облачность Т
(С)
Тd
(С)
f
(%)
Тe
(С)
Тes
(С)
Комфортность P
(гПа)
Po
(гПа)
Тmin
(С)
Tmax
(С)
R
(мм)
S
(см)
03 16.03 В 2 н/о н/о -2.1 -3.8 88 -5 -5 1008.0 843.0
06 16.03 З 1 н/о н/о -8.0 -9.0 92 -9 -9 1007.5 841.8 -8.7 +6.7
09 16.03 ЮВ 1 н/о н/о -4.1 -4.9 94 -7 -7 1005.9 841.3
12 16.03 ЮВ 2 н/о н/о -3.4 -4.2 94 -8 -8 1006.0 841.3 -8.7 +6.7 57
15 16.03 З 1 н/о н/о -3.0 -5.1 85 -5 -5 1007.6 842.4 0.2
18 16.03 З 4 н/о н/о +2.2 -7.5 49 -2 -2 1010.9 845.1 -8.7 +2.3 0.2
21 16.03 З 4 н/о н/о +4.0 -13.8 26 +1 +1 1012.6 847.4
00 17.03 З 3 н/о н/о +2.1 -13.2 31 -1 -1 1014.4 848.7 -8.5 +4.2
03 17.03 С 1 н/о н/о -6.9 -12.6 64 -7 -7 1017.1 849.6
06 17.03 ЮЗ 1 н/о н/о -12.1 -15.1 78 -14 -14 1017.5 849.9 -12.4 +4.2 19
09 17.03 ЮВ 1 н/о н/о -14.7 -17.3 81 -15 -15 1018.3 850.5
12 17.03 СЗ 1 н/о н/о -16.8 -18.8 84 -20 -20 1018.1 849.7 -17.4 +4.2 57
15 17.03 З 1 н/о н/о -15.1 -17.4 83 -15 -15 1018.9 849.2 0.3
18 17.03 ЮВ 4 н/о {осадки} н/о +3.5 -13.9 27 0 0 1015.1 848.1 -19.4 +3.8 0.6
21 17.03 Ю 3 н/о н/о +4.0 -14.0 26 +1 +1 1013.3 846.3
00 18.03 Ю 3 н/о н/о +1.6 -14.4 29 -1 -1 1011.7 844.2 -19.4 +5.5
03 18.03 Ю 2 н/о н/о -2.0 -11.4 49 -5 -5 1010.0 842.5
06 18.03 С 1 н/о н/о -3.5 -10.9 56 -5 -5 1004.4 840.5 -19.4 +5.5
09 18.03 штиль 0 н/о н/о -4.8 -9.6 69 -6 -6 1001.9 838.3
12 18.03 З 1 н/о н/о -5.4 -8.8 77 -6 -6 999.2 835.6 -5.4 +5.5 56
15 18.03 З 1 н/о н/о -3.7 -8.0 72 -4 -4 997.8 834.1
18 18.03 СЗ 2 н/о {осадки} н/о +5.5 -4.5 49 +4 +4 994.3 832.4 -5.6 +5.6 0.8
21 18.03 СЗ 2 н/о н/о +2.8 -3.4 64 0 0 994.5 831.9 0.3
00 19.03 З 4 н/о н/о +1.3 -4.3 66 -4 -4 995.6 832.5 -5.6 +8.0 0.3
03 19.03 З 6 н/о н/о -4.2 -9.4 67 -11 -11 1002.5 837.7 2
06 19.03 З 2 н/о н/о -7.7 -12.7 67 -11 -11 1005.7 841.3 -7.7 +8.0 2 0
09 19.03 СЗ 3 н/о н/о -8.1 -11.6 76 -13 -13 1008.8 843.4 0.3
12 19.03 СЗ 2 н/о {осадки} н/о -8.0 -11.8 74 -12 -12 1010.5 844.6 -14.0 +8.0 0.3 59
15 19.03 ЮЗ 3 н/о н/о -5.4 -15.8 44 -10 -10 1012.2 845.5
18 19.03 ЮЗ 4 н/о н/о -2.3 -14.5 39 -7 -7 1014.1 847.1 -14.0 -2.0
21 19.03 З 4 н/о н/о -1.0 -14.2 36 -6 -6 1015.6 848.5
00 20.03 З 3 н/о н/о -2.3 -14.2 40 -7 -7 1017.1 849.5 -14.0 -0.7
03 20.03 З 3 н/о н/о -5.8 -10.8 68 -11 -11 1020.2 852.0
06 20.03 З 2 н/о н/о -8.1 -11.2 78 -12 -12 1023.1 854.5 -14.0 -0.7 23
09 20.03 В 1 н/о н/о -14.1 -16.2 84 -14 -14 1026.3 856.4
12 20.03 З 1 н/о н/о -13.5 -15.0 88 -14 -14 1027.3 857.2 -18.5 -0.7 58
15 20.03 штиль 0 н/о н/о -17.2 -19.7 81 -17 -17 1029.5 857.8
18 20.03 СЗ 2 н/о {осадки} н/о -0.8 -18.3 25 -3 -3 1026.6 857.7 -20.5 -0.8 1
21 20.03 В 1 н/о н/о +3.1 -21.8 14 +3 +3 1025.8 856.7
00 21.03 В 3 н/о н/о +1.6 -20.0 18 -1 -1 1024.2 855.2 -20.5 +3.4
03 21.03 В 4 н/о н/о -3.4 -17.7 32 -8 -8 1024.4 854.0 0.2
06 21.03 В 4 н/о {осадки} н/о -6.2 -16.1 45 -12 -12 1020.6 853.0 -20.5 +3.4 0.2
09 21.03 В 2 н/о н/о -8.0 -14.1 61 -11 -11 1017.0 850.3
12 21.03 З 1 н/о н/о -14.5 -16.6 84 -15 -15 1015.0 847.4 -14.5 +3.4 57
15 21.03 штиль 0 н/о н/о -10.3 -14.2 73 -11 -11 1013.0 845.6
18 21.03 В 1 н/о {осадки} н/о +1.8 -12.8 33 +2 +2 1009.5 844.1 -14.5 +1.8 0.8
21 21.03 ЮВ 3 н/о н/о +8.1 -10.7 25 +6 +6 1007.1 842.8
00 22.03 ЮВ 2 н/о н/о +4.6 -8.2 39 +3 +3 1008.0 842.0 -14.5 +9.1
03 22.03 В 2 н/о н/о -0.4 -9.0 52 -3 -3 1007.3 841.3
06 22.03 З 1 н/о н/о -7.0 -10.0 79 -9 -9 1005.0 840.2 -14.5 +9.1
09 22.03 З 1 н/о н/о -7.5 -10.2 81 -10 -10 1002.7 839.2
12 22.03 З 1 н/о н/о -3.9 -4.8 93 -6 -6 1003.3 839.7 -9.0 +9.1 1 57
15 22.03 СЗ 2 н/о н/о -2.5 -3.0 96 -6 -6 1004.3 840.0 2
18 22.03 З 2 н/о {осадки} н/о +7.0 -0.3 60 +6 +6 1003.5 839.8 -9.0 +7.6 3
21 22.03 З 2 н/о н/о +9.0 -5.4 36 +8 +8 1002.9 839.5 0.2

 

Местоположение метеостанции Henderickson Auto (Канада): широта 53.78 долгота -118.40 высота над уровнем моря 1432 м.

В архиве по умолчанию представлена погода в Henderickson Auto за последнюю неделю. Архивные данные за месяц целиком и за предыдущие месяцы, начиная с января 2011 года, Вы можете получить, выбрав интересующий диапазон дат из раскрывающегося списка и нажав кнопку "Ввод!".

Внимание! Время в таблицах - всемирное. Для получения местного времени необходимо прибавить поправку, которая в Henderickson Auto равна -7 ч.

Смотрите также архив погоды в соседних городах и на ближайших метеорологических станциях:

Погода в Willow Creek 1 (Канада) (45 км)
Погода в Jasper Warden (Канада) (98 км)
Погода в Jasper (Канада) (104 км)
Погода в Edson AB (Канада) (134 км)
Погода в Grande Prairie (Канада) (158 км)
Погода в Valley View Agdm (Канада) (166 км)
Погода в Beaverlodge Cda (Канада) (171 км)
Погода в Teepee Creek Agcm (Канада) (175 км)
Погода в Whitecourt (Канада) (181 км)
Погода в Whitecourt Alta (Канада) (181 км)

Пояснения к столбцам:

Ветер - указаны скорость ветра в м/с - средняя за 10 мин, порывы в срок и между сроками (в фигурных скобках) и направление, откуда дует ветер: С - северный, СВ - северо-восточный, В - восточный, ЮВ - юго-восточный, Ю - южный, ЮЗ - юго-западный, З - западный, СЗ - северо-западный.
Видимость - горизонтальная дальность видимости в метрах или километрах. При видимости от 1 до 10 км при отсутствии осадков обычно наблюдается дымка, при ухудшении видимости до 1 км и менее - туман. В сухую погоду видимость может ухудшаться дымом, пылью или мглою.
Явления - указаны атмосферные явления, наблюдавшиеся в срок или в последний час перед сроком; фигурными скобками обозначены явления, наблюдавшиеся между сроками (за 1-3 часа до срока); квадратными скобками обозначены град или гололедные отложения с указанием их диаметра в мм.
Облачность - указаны через наклонную черту общая и нижняя облачность в баллах и высота нижней границы облаков в метрах; квадратными скобками обозначены формы облаков: Ci - перистые, Cs - перисто-слоистые, Cc - перисто-кучевые, Ac - высококучевые, As - высокослоистые, Sc - слоисто-кучевые, Ns - слоисто-дождевые, Cu - кучевые, Cb - кучево-дождевые. Подробнее классификацию облаков см. в Атласе облаков (PDF).
T - Температура воздуха - температура, измеренная на высоте 2 м над землей.
Td - Температура точки росы - температура, при понижении до которой содержащийся в воздухе водяной пар достигнет насыщения.
f - Относительная влажность воздуха - влажноcть воздуха, измеренная на высоте 2 м над землей.
Te - Эффективная температура - температура, которую ощущает одетый по сезону человек в тени. Характеристика душности погоды. При расчете учитывается влияние влажности воздуха и скорости ветра на теплоощущения человека.
Tes - Эффективная температура на солнце - температура, которую ощущает человек, с поправкой на солнечный нагрев. Характеристика знойности погоды. Зависит от высоты солнца над горизонтом, облачности и скорости ветра. Ночью, в пасмурную погоду, а также при ветре 12 м/с и более поправка равна нулю.
P - Атмосферное давление - приведенное к уровню моря атмосферное давление.
Po - Атмосферное давление - измеренное на уровне метеостанции атмосферное давление.
Tmin - Минимальная температура - минимум температуры воздуха на высоте 2 м над землей.
Tmax - Максимальная температура - максимум температуры воздуха на высоте 2 м над землей.
R - Количество осадков - Количество выпавших осадков, мм. При наведении курсора мыши на число - период времени, за который выпало указанное количество осадков.
S - Снежный покров - Высота снежного покрова, см. При наведении курсора мыши на число - состояние снежного покрова и степень покрытия местности в баллах.